Theta_e
336 336 336 334 331 329 331 336 338 338 338 336 336 336 335 335 332 330 333 333 330 328 328 329 329 330 330 331 327 321 321 323 325 328 331 332 332 332 329 329 329 328 328 327 326 326 326 325 324 323 323 323 322 320 319 318 318 314 315 319 317 317 317 316 316 316 316 315 314 314 314 314 314 314 314 314 314 313 313 313 313 314 314 313 313
338 337 336 336 334 329 327 332 336 338 338 336 336 336 336 335 332 331 333 333 329 327 328 329 330 330 331 331 328 322 321 323 324 326 330 330 329 326 324 327 328 327 326 324 323 324 324 324 324 323 322 321 321 320 317 317 316 313 315 315 313 314 315 316 316 316 315 315 315 314 314 314 314 314 314 314 314 314 313 313 313 313 314 313 313
338 337 337 337 336 332 328 328 332 335 337 337 335 335 336 336 332 330 333 332 329 327 327 329 329 330 331 332 330 324 322 323 325 325 327 326 322 319 322 327 328 327 325 323 322 324 324 323 321 321 320 318 318 317 316 316 314 313 314 312 312 313 314 316 316 317 316 315 315 314 314 314 313 314 314 314 313 313 313 313 314 313 314 313 313
338 337 338 338 337 335 329 327 328 331 335 336 335 335 336 336 333 330 333 333 330 329 328 328 328 329 330 332 332 328 324 323 324 323 323 324 324 323 325 328 329 328 326 323 323 324 324 321 319 318 317 316 316 315 315 315 313 312 311 311 312 314 314 315 316 316 316 316 315 315 314 314 314 314 314 313 313 313 313 313 313 314 314 314 313
338 337 338 338 338 336 331 327 327 329 332 336 336 335 337 337 335 330 332 333 331 331 329 328 328 329 330 330 332 331 329 326 324 324 326 328 330 330 330 330 330 328 327 325 323 325 326 321 317 316 315 315 315 315 314 313 312 310 310 311 313 314 314 315 316 316 316 315 315 315 314 314 314 314 313 313 313 313 313 313 313 313 313 313 313
337 338 338 338 339 337 332 328 328 328 329 334 336 336 337 338 337 332 330 332 332 332 331 329 328 328 328 329 330 331 331 330 327 327 329 331 331 331 331 331 330 329 329 327 325 326 326 320 317 315 314 315 314 313 313 311 310 310 311 313 314 314 315 315 316 316 315 315 315 315 315 314 314 313 313 313 313 313 313 313 313 313 313 313 312
337 338 338 339 340 338 334 328 328 329 329 332 336 337 338 338 339 334 330 331 332 332 332 330 328 328 328 328 328 329 331 332 331 329 330 331 331 332 331 331 331 330 330 329 328 328 327 320 316 314 313 317 318 313 312 312 311 311 312 313 313 313 313 314 314 315 314 314 314 315 315 315 314 314 313 313 313 313 313 313 313 313 313 312 312
338 338 338 339 339 338 334 329 328 330 330 332 337 338 337 339 339 337 332 329 331 331 332 331 329 329 328 327 327 328 329 330 331 331 332 332 332 332 331 331 331 330 330 330 329 329 328 320 315 314 313 321 325 320 314 313 312 312 312 312 312 312 312 313 312 313 314 313 314 314 315 315 314 314 313 312 312 313 313 313 313 313 313 312 312
339 338 339 339 338 338 334 329 327 329 331 333 338 339 338 339 339 339 335 330 330 331 331 331 330 329 328 327 327 327 328 329 330 331 332 332 332 333 332 331 330 330 329 329 330 331 329 320 315 315 315 324 329 326 320 316 316 315 313 312 312 312 312 312 312 311 312 312 312 313 314 314 314 313 312 312 313 313 313 313 313 313 313 313 313
339 339 339 339 338 337 333 329 328 328 330 333 338 339 337 339 340 340 338 333 330 331 331 330 330 329 329 327 327 327 327 328 329 330 331 332 333 333 333 332 330 330 329 328 330 332 329 321 316 317 318 324 329 326 323 320 319 318 315 313 314 314 314 313 311 310 310 311 311 311 313 314 314 313 312 312 313 313 313 313 313 313 313 313 313
340 339 339 339 336 336 333 329 329 328 328 331 336 338 337 336 339 340 339 337 333 332 332 330 329 330 330 328 327 326 326 327 327 328 329 332 333 332 333 332 331 330 329 328 330 332 330 323 318 319 321 324 328 328 327 325 323 322 319 314 315 317 317 314 312 310 309 309 309 311 312 313 313 313 312 313 313 313 313 313 313 313 313 313 313
341 340 339 337 336 335 333 329 329 329 328 330 334 338 338 335 337 339 339 338 336 334 333 332 329 329 331 329 327 325 326 326 327 327 327 329 330 330 332 332 331 330 329 328 329 332 330 324 319 320 324 326 328 330 329 328 327 327 323 317 317 320 319 317 314 310 309 309 309 309 311 312 312 313 313 313 313 313 313 313 313 312 313 313 313
341 339 338 336 335 336 334 331 330 328 329 333 335 337 336 335 336 338 338 338 337 335 334 333 330 328 330 329 328 326 325 326 327 326 326 328 328 329 331 332 331 330 329 326 326 330 330 326 321 321 326 328 329 330 330 330 330 329 326 321 320 321 320 318 316 311 309 310 309 309 309 311 312 313 314 313 313 313 314 313 313 312 313 314 313
339 337 336 335 335 336 334 334 331 329 331 335 335 335 335 334 335 337 337 337 336 336 334 333 331 328 329 329 328 326 324 325 327 327 326 325 326 325 327 331 331 329 328 325 323 327 330 328 323 320 323 327 330 330 331 331 330 329 326 324 322 321 319 318 318 315 312 310 309 308 309 309 311 313 314 313 313 312 313 313 312 313 313 314 314
338 336 336 335 336 336 335 334 332 330 330 331 331 333 335 334 335 337 337 337 336 337 334 333 331 329 329 329 329 327 324 325 327 327 326 322 322 322 323 328 329 328 328 325 322 325 329 328 325 321 318 321 327 330 331 331 330 329 326 324 323 322 320 318 320 320 316 312 309 308 308 309 309 311 313 313 312 312 313 313 312 313 313 313 313
337 336 336 336 336 335 335 333 331 330 328 328 327 329 332 334 334 335 336 337 337 337 334 333 331 329 329 330 329 327 324 325 327 327 324 320 320 320 321 325 327 327 327 324 321 323 326 328 326 323 318 314 321 328 330 331 330 329 326 323 322 323 320 318 322 323 320 315 311 309 308 308 309 310 312 312 312 311 312 312 311 312 312 312 312
337 336 336 336 336 336 335 334 332 330 329 329 329 328 328 330 330 330 333 335 336 336 334 333 331 329 329 329 329 326 324 325 327 327 323 319 318 319 321 323 326 326 325 322 320 319 322 328 328 325 322 315 317 327 330 330 330 329 327 324 322 323 321 318 321 322 321 319 314 308 307 307 308 309 311 311 311 310 310 310 310 311 311 311 311
338 338 337 337 337 336 335 335 334 332 331 332 332 331 329 327 327 328 331 334 335 335 334 332 330 329 329 328 328 325 323 325 327 326 322 320 318 318 322 324 325 325 322 320 319 318 318 324 328 326 325 319 318 327 331 330 330 330 329 326 323 325 324 319 319 319 321 321 314 309 308 307 307 308 310 310 310 310 310 309 309 310 310 310 309
339 339 338 338 337 337 336 335 333 332 333 333 333 333 331 329 328 327 329 334 335 334 333 332 330 329 328 327 325 322 322 325 327 326 322 320 318 318 322 323 324 323 319 318 318 318 317 321 325 327 327 323 318 326 332 331 331 331 330 328 324 326 327 323 318 317 319 318 312 310 309 307 307 307 309 310 309 309 309 308 308 309 309 309 309
339 339 338 338 337 337 336 334 329 329 331 331 333 333 332 330 329 327 328 332 332 333 333 332 331 329 327 325 322 321 322 325 327 326 323 320 318 320 321 322 323 322 319 318 319 319 319 321 322 324 327 326 319 322 330 332 331 331 330 328 326 327 328 326 321 317 318 316 312 311 310 309 307 307 308 308 309 309 309 308 307 309 309 309 309
335 335 336 335 334 333 332 330 326 327 327 328 331 332 333 332 332 331 330 330 331 331 331 331 330 327 326 323 321 320 322 326 326 325 322 318 320 322 321 322 323 322 321 319 319 319 321 322 320 320 324 327 323 319 327 331 330 331 330 329 327 329 328 327 324 320 318 317 314 312 310 309 307 306 307 307 307 308 308 308 307 308 309 308 309
330 329 330 330 329 329 328 327 327 327 328 328 329 330 332 333 333 334 332 332 331 330 328 328 327 325 324 322 320 320 323 327 326 324 320 316 320 323 322 322 323 322 321 320 319 318 320 321 320 320 320 324 327 321 324 331 330 329 330 329 328 329 328 327 326 322 321 318 315 313 310 308 306 306 306 306 307 307 307 307 307 308 308 308 308
327 327 327 327 327 327 327 327 327 328 328 329 330 329 331 332 333 334 333 333 331 330 328 328 327 326 326 322 322 323 325 328 326 324 318 316 321 323 322 321 323 323 322 322 320 317 317 317 317 319 318 320 326 324 322 328 330 327 329 329 329 328 327 328 325 323 324 322 318 316 312 308 306 306 306 306 307 307 307 307 307 307 307 307 307
326 327 327 327 327 327 326 326 326 328 329 330 331 330 329 330 332 333 333 333 331 331 330 330 329 329 328 326 327 327 327 328 328 327 322 320 321 324 325 322 322 322 322 323 321 318 315 315 315 318 319 317 325 327 322 324 328 327 328 329 329 328 327 327 324 323 325 324 320 319 315 311 307 306 306 306 307 307 307 307 306 307 306 306 306
324 325 326 326 326 326 326 325 325 327 328 330 330 330 329 328 331 333 332 329 329 331 330 331 330 329 330 329 330 329 327 327 327 328 328 326 323 325 327 324 321 322 323 323 323 322 316 314 313 316 318 317 323 328 324 322 325 327 328 329 329 328 327 326 323 323 325 325 322 320 318 314 310 308 307 306 307 307 307 307 306 306 306 306 306
321 322 323 323 323 324 325 325 324 324 326 328 329 330 331 329 330 333 331 326 327 331 329 329 331 331 331 330 331 329 326 326 327 328 329 328 327 326 327 324 320 321 323 322 323 321 316 314 312 313 316 316 321 326 325 321 322 326 328 328 328 326 326 325 324 324 324 324 322 321 319 317 313 311 308 307 307 307 307 307 307 306 306 306 306
319 319 321 321 321 322 324 324 324 323 322 323 326 329 330 329 329 332 332 327 324 326 326 328 331 331 332 331 331 329 326 326 328 329 329 329 329 327 328 325 321 321 322 322 323 318 314 313 312 314 315 316 321 325 325 322 319 324 328 328 327 326 325 325 325 324 324 323 322 320 319 318 316 314 311 308 307 307 307 307 307 307 307 306 306
319 319 320 321 321 321 322 322 323 323 321 320 321 324 328 329 330 331 332 330 325 320 322 329 332 330 331 331 330 329 327 327 329 330 330 331 329 327 327 326 321 321 322 322 321 318 315 313 313 316 318 318 321 322 323 322 319 322 327 328 327 326 325 325 324 323 321 321 321 320 319 318 317 317 314 311 308 307 307 307 307 307 307 307 306
319 319 319 320 321 321 321 322 322 322 322 321 320 321 325 328 331 331 331 332 329 323 320 325 331 331 330 329 329 329 329 329 330 330 330 331 331 328 328 327 323 321 323 323 321 321 321 318 316 316 320 322 322 320 319 319 318 320 325 327 326 325 324 323 322 320 319 319 321 321 322 320 318 317 316 314 312 309 307 306 306 307 307 307 306
318 318 318 318 319 320 321 321 322 322 321 322 321 322 323 325 328 330 331 331 331 329 324 321 325 329 330 329 329 329 329 330 331 331 331 331 331 331 330 329 326 323 323 323 321 322 324 324 321 320 322 325 324 323 320 318 317 318 322 325 325 325 324 322 321 319 318 318 321 322 322 321 319 319 318 316 315 313 311 309 307 306 306 307 306
318 317 317 317 316 317 319 319 321 321 321 322 323 324 323 323 326 329 331 331 331 331 329 324 322 323 326 328 330 330 330 331 330 331 331 331 331 331 331 330 329 326 324 323 323 322 323 324 325 324 324 326 325 325 324 321 319 317 319 321 322 323 323 322 320 319 318 318 320 321 322 322 320 319 319 318 317 316 314 312 310 308 306 306 306
317 317 317 316 315 316 317 318 318 319 320 322 324 325 325 324 326 328 330 331 331 331 331 329 327 325 326 328 330 330 330 330 330 330 331 331 331 330 330 330 329 328 325 324 324 323 323 324 325 325 325 325 326 325 324 324 322 320 320 320 322 321 320 320 319 318 318 320 321 322 323 323 322 320 319 319 318 317 316 315 314 312 310 308 306
317 317 316 315 314 315 315 315 314 316 319 322 324 325 325 324 325 327 329 330 331 331 331 331 331 330 329 329 330 331 331 331 330 330 330 330 330 331 331 330 329 329 328 326 325 324 324 325 325 326 325 325 326 326 325 325 324 324 323 324 324 323 322 322 320 319 319 321 321 322 324 325 323 321 320 320 319 319 318 316 316 315 313 311 309
318 317 316 316 314 313 312 313 312 313 318 322 323 323 323 323 324 324 325 326 327 329 330 331 332 332 331 331 330 330 331 331 330 329 329 329 330 330 331 331 330 330 329 328 327 326 325 326 326 326 327 326 326 326 326 326 324 325 325 325 325 325 324 324 322 323 323 323 323 323 325 325 324 323 322 321 320 320 319 318 317 317 316 314 314
318 317 317 316 314 312 310 311 312 312 316 320 322 321 320 319 320 320 320 321 323 324 324 325 327 329 331 332 332 331 331 331 330 329 328 329 329 330 330 330 330 329 329 329 329 328 327 327 328 328 328 327 327 328 328 327 325 325 325 325 325 325 325 324 323 323 324 325 325 325 325 325 325 325 324 323 322 321 320 319 319 319 318 317 317
319 319 317 316 314 311 310 310 311 312 314 318 319 317 316 315 315 315 317 318 319 320 320 320 321 323 326 328 329 330 331 331 331 329 329 329 329 330 330 330 330 330 329 328 328 328 328 328 328 329 329 329 329 329 329 328 326 325 326 326 326 326 325 324 324 322 322 324 325 326 326 326 326 327 326 326 324 323 321 320 320 321 321 321 320
319 319 317 315 314 311 310 309 309 310 311 314 314 311 312 313 313 313 316 317 318 319 319 319 320 321 321 322 322 324 327 330 331 330 329 329 329 329 330 330 330 330 329 327 326 326 328 329 329 327 327 329 329 329 329 329 328 326 326 327 327 327 326 326 325 325 323 324 324 325 326 326 326 326 327 327 326 325 324 324 323 323 323 322 322
320 318 316 315 313 311 310 308 307 308 308 309 308 309 310 310 311 314 316 316 316 317 317 318 318 319 320 320 321 321 323 326 328 329 328 327 328 329 329 330 330 330 330 328 326 326 327 329 330 326 324 327 330 330 330 330 329 327 327 328 328 326 326 326 326 326 325 323 322 322 323 324 326 326 326 327 327 327 326 326 326 325 324 323 323
320 318 317 315 313 311 309 308 307 306 306 306 306 308 307 306 310 313 312 310 310 311 314 315 316 316 317 318 319 320 321 322 323 326 327 327 326 328 329 329 329 330 330 330 329 328 327 327 327 324 323 326 329 330 330 330 330 328 328 329 328 327 326 326 326 325 324 322 322 321 321 322 324 326 326 326 327 327 327 326 327 326 325 323 323
319 318 317 316 313 311 309 308 307 306 306 306 306 306 306 307 309 309 308 307 306 307 308 308 309 310 311 313 315 317 318 319 320 321 325 328 327 327 328 328 329 330 330 331 331 331 329 326 324 322 322 323 326 328 329 330 329 328 329 330 329 328 327 327 326 324 324 323 323 322 321 319 320 323 326 327 327 327 327 327 327 326 325 324 324
319 318 318 316 313 312 310 309 307 306 306 306 307 307 308 309 309 309 307 305 305 305 305 305 305 306 306 308 310 312 314 316 317 317 319 324 325 324 326 328 329 330 330 330 331 331 329 326 323 322 322 324 326 326 328 331 330 329 330 330 330 330 329 329 328 326 325 324 324 323 323 322 320 320 323 326 328 328 328 327 327 326 326 326 326
319 318 318 316 313 312 310 309 308 307 308 308 308 309 310 310 309 309 308 305 305 306 306 306 306 305 305 305 305 308 310 312 315 314 313 317 319 319 322 326 328 329 330 331 331 331 330 328 325 325 325 326 327 327 328 330 330 329 330 330 330 330 331 330 328 327 327 326 325 324 324 324 323 321 321 323 326 328 328 327 327 327 327 327 327
320 318 318 317 314 312 310 309 309 309 309 310 310 311 311 309 308 309 308 307 307 307 308 307 307 306 305 304 304 304 305 307 309 309 308 311 314 314 315 318 321 323 326 326 326 327 329 329 328 328 328 328 328 328 328 330 331 331 331 330 330 330 331 331 329 328 327 326 326 325 324 324 324 324 322 322 323 325 328 327 327 328 328 328 328
319 318 319 318 315 312 311 309 309 310 310 311 311 312 311 309 309 309 309 309 308 308 308 307 307 307 305 305 304 304 305 304 304 305 305 307 309 309 309 311 313 316 319 320 321 323 325 325 325 325 327 327 327 327 328 329 330 331 331 331 331 331 331 331 330 329 328 326 326 326 325 324 324 324 324 323 321 322 324 326 327 328 329 329 329
319 319 319 319 316 313 311 310 310 310 311 312 312 312 311 310 310 310 309 309 309 308 308 308 307 307 307 306 306 305 306 305 304 305 305 306 306 306 306 306 307 310 313 316 318 320 321 323 322 322 322 323 324 325 326 327 328 330 331 331 331 331 331 330 330 329 329 327 327 326 325 326 325 325 326 326 324 322 323 324 326 327 328 328 329
319 319 319 319 317 313 312 310 310 311 311 312 313 312 312 310 309 309 309 309 309 309 309 309 308 308 308 307 307 306 306 306 306 306 307 306 307 306 306 306 306 306 307 309 311 313 315 318 320 321 322 323 325 326 326 327 328 330 331 331 330 330 330 330 329 329 328 328 327 327 326 326 326 326 326 327 327 326 325 325 326 327 327 328 328
319 319 319 319 317 314 312 310 311 311 311 312 313 313 312 310 309 308 309 309 309 309 309 309 308 308 308 308 307 307 307 306 306 306 306 306 306 306 306 307 307 307 307 308 309 309 310 311 313 315 318 320 322 324 325 325 327 328 330 329 330 330 330 330 330 329 329 329 329 328 328 328 327 327 327 327 328 328 328 327 327 328 328 328 328
320 319 319 319 318 315 312 311 311 311 311 311 313 313 312 310 309 309 310 310 310 310 310 310 309 308 308 308 308 308 308 307 306 305 305 304 303 303 304 305 305 305 306 306 307 307 308 309 310 311 312 314 316 318 320 322 323 324 326 327 327 329 330 330 330 329 329 329 329 329 328 328 328 328 328 328 328 328 328 328 328 328 328 328 329
319 319 319 319 318 316 312 311 311 311 310 310 311 313 312 311 310 309 309 310 310 310 310 310 310 309 308 308 308 308 308 308 307 306 305 304 303 303 303 303 303 304 304 304 305 305 306 308 309 310 311 312 312 313 314 316 318 320 322 323 324 326 327 328 328 328 328 329 329 328 328 327 327 327 328 328 328 328 329 329 329 328 329 329 329
319 320 320 319 318 317 313 312 311 311 311 310 311 312 312 312 310 309 310 310 310 310 310 310 311 310 309 308 308 308 308 308 307 307 306 305 305 305 305 304 304 304 304 304 304 304 304 305 306 307 309 311 312 313 313 313 313 315 317 319 321 322 323 323 323 323 325 326 327 327 327 327 326 326 327 327 328 329 329 329 329 329 329 329 329
320 320 320 319 319 317 315 313 313 312 311 311 310 311 312 311 310 309 309 310 310 310 310 310 311 311 310 309 308 308 308 308 308 307 306 306 306 306 306 306 305 305 305 305 304 304 304 304 304 305 306 307 308 311 313 314 313 313 313 315 317 320 321 322 322 322 322 323 324 325 325 325 325 325 326 327 328 329 329 329 329 329 329 329 328
Wind_Speed
18 16 16 14 12 12 14 16 17 17 16 16 16 16 16 16 17 17 15 14 12 12 12 13 14 14 14 14 15 15 16 17 18 20 21 21 20 18 17 15 14 12 11 10 8 8 8 7 7 7 7 6 5 4 4 3 4 5 4 6 9 10 10 10 12 12 14 17 18 17 16 15 14 13 13 14 14 14 16 17 18 18 19 19 20
20 18 16 15 12 11 13 15 17 17 17 17 16 16 16 16 17 17 15 14 13 12 13 13 14 13 13 14 15 16 16 17 18 19 20 19 19 18 17 15 14 12 11 9 8 7 7 7 7 7 7 7 7 5 5 5 5 6 6 7 10 10 10 9 10 12 14 17 17 17 16 15 14 12 12 13 13 14 15 16 17 17 17 18 18
20 19 16 16 13 11 12 13 16 16 17 17 17 16 15 15 17 17 15 14 13 13 13 13 13 13 13 14 14 15 16 17 18 18 18 18 17 18 17 16 14 13 11 9 7 7 7 7 7 8 8 9 9 8 7 7 7 8 8 8 12 11 11 9 10 10 12 16 17 16 15 14 13 12 12 12 13 13 14 15 16 15 16 16 16
20 19 17 16 14 12 11 12 15 15 17 17 17 16 15 15 16 17 16 14 13 13 13 14 13 13 13 13 13 14 16 16 17 17 17 17 17 17 16 15 14 13 12 10 8 7 7 7 7 9 11 13 13 11 10 9 9 10 9 9 13 13 11 10 9 9 10 14 16 15 15 14 13 12 11 11 12 12 13 14 14 14 14 14 14
20 19 18 16 14 13 12 12 13 15 15 17 16 15 15 14 16 17 16 15 14 13 13 13 13 13 13 13 13 13 14 15 15 16 17 16 15 14 14 13 12 12 11 11 9 8 9 9 9 11 14 16 15 14 12 12 11 11 11 11 14 14 12 10 9 9 11 14 15 15 14 13 12 12 11 11 11 11 12 12 13 13 13 12 13
21 20 18 16 14 13 12 12 13 15 15 16 16 15 14 14 15 17 16 15 15 13 12 13 13 13 12 12 12 11 12 12 14 14 14 14 13 12 12 12 11 11 11 11 10 9 10 11 10 12 16 18 17 16 15 14 14 14 14 14 15 15 13 10 9 11 13 14 14 14 14 13 12 11 11 10 10 10 10 11 11 11 11 11 11
20 20 18 15 14 13 12 12 13 15 16 16 16 15 14 14 14 16 16 15 15 14 12 12 12 12 11 10 11 10 10 10 11 11 11 12 11 11 11 11 10 11 11 11 11 11 12 14 12 12 17 19 19 19 17 16 17 16 16 17 18 18 15 13 12 14 14 12 12 12 12 12 12 11 11 10 10 9 9 9 10 10 10 10 10
20 20 18 16 14 13 12 12 13 14 16 16 15 16 15 14 14 15 17 16 15 14 12 12 12 12 10 9 9 9 9 9 9 9 9 10 10 10 10 10 10 10 11 11 11 12 13 15 14 13 17 19 19 20 19 18 18 18 17 19 20 21 18 16 15 15 13 11 10 10 11 12 11 11 10 9 9 9 9 8 9 9 9 9 9
20 20 18 16 14 13 13 12 12 13 14 15 15 15 16 16 15 15 17 17 15 14 13 12 12 11 10 9 9 9 9 9 9 9 8 8 9 9 10 10 10 10 11 11 12 12 13 16 16 14 18 19 19 20 20 19 19 19 18 19 20 21 20 17 16 15 13 11 10 9 10 11 11 11 10 9 9 9 8 8 7 8 8 8 9
20 20 19 16 14 14 14 12 12 12 13 14 15 15 15 16 16 16 16 17 16 15 14 12 12 11 10 9 8 8 8 9 8 8 8 8 8 8 9 10 11 11 10 10 12 13 13 16 18 16 17 19 19 20 21 20 19 19 19 19 20 21 20 18 16 15 14 13 11 9 9 9 11 11 11 9 8 9 8 7 7 7 7 8 8
19 20 20 17 15 15 14 13 13 12 12 14 15 15 14 15 17 18 17 17 17 16 14 13 12 11 9 8 7 7 7 7 8 8 7 8 9 8 9 10 10 10 10 10 12 14 13 15 18 16 16 18 20 20 19 19 18 18 18 19 19 19 20 19 17 15 14 13 12 10 9 9 11 12 11 9 8 9 8 7 7 7 7 7 7
20 21 20 18 17 16 15 14 13 12 12 13 14 15 14 14 16 18 17 17 18 17 15 13 12 11 10 8 7 6 6 7 7 8 8 8 8 8 8 9 9 9 9 10 11 14 15 15 17 17 16 18 19 19 18 17 16 15 16 17 17 17 18 18 17 15 14 12 11 11 11 10 10 11 11 10 9 9 8 8 7 6 6 6 6
21 21 20 17 17 17 16 15 14 13 12 12 13 14 14 15 16 16 16 16 18 18 16 14 12 11 10 9 8 6 6 7 7 8 9 8 7 7 8 8 8 8 8 9 10 13 16 14 15 18 17 17 18 18 18 16 15 13 14 17 16 15 15 17 17 16 14 12 11 11 11 10 9 10 10 10 9 9 9 8 7 6 5 5 5
22 21 19 17 17 16 15 14 13 13 13 12 12 13 14 15 16 15 15 14 16 17 16 14 12 11 10 8 8 6 6 7 8 8 10 8 7 6 7 8 7 8 8 9 9 10 14 14 15 17 18 17 18 18 18 17 15 13 14 16 16 13 13 15 17 16 14 13 11 11 11 10 9 9 10 10 9 9 9 8 7 6 5 5 4
22 21 19 18 17 16 15 13 12 12 12 12 12 12 13 14 15 14 13 13 14 16 16 14 12 11 9 8 8 6 6 7 8 8 9 8 7 7 7 8 7 7 8 9 9 9 11 14 15 17 17 17 17 18 18 16 14 13 13 14 15 13 11 13 15 14 13 12 11 11 11 11 10 9 10 10 10 9 9 8 7 6 5 4 4
22 20 18 17 16 16 15 13 12 11 11 12 11 11 11 12 13 13 12 12 13 15 15 14 13 11 9 8 8 7 6 8 9 9 8 8 7 7 8 10 8 7 8 8 9 9 9 12 15 17 17 17 18 18 17 15 14 13 12 12 14 14 11 11 13 12 11 10 9 10 10 12 12 10 10 11 10 9 9 9 8 6 5 4 4
20 19 16 15 14 14 14 13 12 11 11 11 11 10 11 12 12 13 12 12 14 15 15 14 13 11 9 8 9 7 8 10 10 9 8 7 6 7 9 10 9 8 7 7 8 9 9 10 15 17 17 17 18 19 18 16 14 13 12 11 12 13 11 10 10 10 9 8 7 7 8 11 12 12 12 12 11 10 10 9 8 7 6 5 4
18 17 15 13 13 14 13 12 12 11 10 9 10 10 11 12 12 12 12 13 14 15 15 14 13 11 9 9 9 8 8 10 10 9 8 5 5 6 8 8 8 8 7 7 8 10 10 11 14 17 17 17 19 20 19 17 15 14 13 11 10 11 11 10 8 7 8 7 6 5 6 8 11 12 12 13 13 12 11 10 9 8 6 5 5
16 15 14 12 13 14 14 12 11 10 10 10 9 9 11 12 12 12 12 13 14 15 15 14 13 11 9 9 8 8 9 10 10 10 8 5 5 6 7 8 8 8 7 7 8 10 12 12 13 17 18 18 19 21 20 18 16 15 13 12 11 10 11 10 8 6 7 6 5 5 4 5 8 10 10 12 13 12 12 11 10 8 7 6 5
16 15 14 13 13 13 14 11 9 9 9 10 10 9 9 11 11 11 12 13 14 15 14 14 13 12 10 9 8 8 9 10 10 10 8 5 6 7 7 8 9 8 7 6 7 10 12 13 12 15 18 18 19 21 21 19 17 16 14 13 11 9 10 10 9 8 7 6 5 5 4 3 4 6 8 10 11 11 11 11 10 9 8 7 6
16 15 14 13 13 12 11 10 9 9 9 9 10 10 9 10 10 11 11 12 14 14 14 14 14 12 11 10 9 7 8 10 9 9 8 7 8 7 8 9 10 8 7 6 6 8 11 12 12 13 16 18 19 21 22 21 18 16 15 14 12 10 9 9 9 8 7 6 5 5 4 3 2 3 5 8 9 9 9 9 9 8 8 7 6
17 16 14 13 12 12 11 9 9 9 8 8 9 10 10 10 10 12 12 12 12 13 13 14 14 13 12 10 9 8 8 9 9 9 9 9 9 8 8 10 11 8 5 4 5 7 9 11 12 13 15 18 20 21 22 21 18 16 15 15 13 11 9 8 8 7 7 6 5 5 4 3 3 1 3 6 8 8 8 7 8 7 7 6 5
18 17 15 14 11 11 10 9 9 8 8 8 9 10 11 11 11 12 13 12 12 12 13 14 14 13 12 9 9 9 8 8 9 8 8 9 10 9 9 9 9 8 3 1 2 5 8 10 12 13 14 18 21 22 22 22 19 16 15 15 14 12 10 9 7 6 6 5 5 5 5 4 4 2 1 5 7 8 8 7 7 6 6 5 4
18 16 15 14 11 10 9 8 9 9 8 8 9 10 11 12 12 14 14 13 12 12 14 14 15 14 12 9 8 9 7 7 7 7 8 9 9 9 9 9 9 6 2 1 1 2 6 10 12 14 14 17 22 23 22 22 21 17 15 15 14 12 11 10 9 7 5 4 4 4 4 4 4 3 2 3 5 7 8 7 7 6 6 6 5
17 15 13 12 11 9 8 8 8 9 9 7 8 9 11 12 13 15 15 14 14 14 14 14 14 13 12 9 9 9 7 6 6 7 9 10 10 10 9 9 8 6 3 1 0 2 3 8 12 15 15 17 21 23 21 22 22 18 16 16 15 13 11 10 10 8 6 4 3 4 4 4 4 3 2 2 3 6 8 8 7 8 7 7 6
16 14 12 11 9 9 7 8 7 8 8 7 7 7 9 11 13 15 15 15 16 15 15 15 14 13 12 10 10 10 8 7 6 8 10 11 11 10 9 8 8 6 4 2 0 2 3 6 10 13 15 18 21 22 21 21 22 20 17 17 16 14 12 11 10 9 7 5 4 4 4 3 3 3 3 3 3 5 7 9 8 8 8 8 8
16 13 13 11 9 9 7 7 7 7 7 7 7 7 8 10 12 14 14 14 15 16 16 17 16 14 12 11 11 10 9 7 7 7 8 10 11 10 10 9 8 6 4 2 0 1 2 6 9 13 15 18 21 22 21 20 22 22 19 17 17 15 13 12 10 9 8 7 6 5 5 4 3 3 3 3 4 4 5 8 9 9 9 9 9
15 14 13 12 11 9 8 7 6 6 6 6 8 9 9 9 11 12 13 13 13 14 17 17 16 15 12 9 11 11 9 9 7 7 8 10 12 12 11 9 8 7 5 3 1 3 5 8 11 14 17 19 20 20 20 19 22 24 21 18 17 16 14 13 11 10 9 8 7 6 7 7 5 5 4 4 4 5 5 6 8 9 9 10 10
13 13 12 11 10 9 9 8 7 6 6 7 8 10 10 10 11 12 12 12 12 12 15 17 15 14 12 10 11 11 10 9 8 8 9 11 13 14 13 11 9 8 7 5 4 6 8 10 12 15 17 19 20 18 18 18 20 24 24 21 18 17 16 14 13 12 11 10 9 7 7 7 6 6 6 6 5 6 6 6 7 8 9 11 11
13 12 10 10 9 9 9 8 8 7 8 8 8 9 10 10 10 11 12 11 11 12 13 15 15 14 13 12 12 12 11 10 8 8 9 10 11 13 13 12 11 9 8 8 8 8 8 9 12 14 16 16 17 16 16 16 18 22 24 22 19 18 17 15 15 15 14 13 11 10 9 8 7 6 6 6 7 6 7 6 6 8 9 11 11
15 12 11 10 9 9 8 8 9 8 8 9 9 9 9 9 9 10 11 12 12 12 13 14 14 14 14 13 13 12 11 10 9 8 9 10 11 12 12 13 12 10 9 9 11 11 10 9 9 11 13 13 13 13 14 15 17 19 21 22 20 20 19 17 17 17 16 15 14 12 11 10 9 8 8 7 7 7 7 7 7 8 9 10 12
16 13 11 10 9 10 10 10 10 10 9 9 9 8 8 8 8 8 9 11 12 13 14 14 14 15 14 14 13 13 12 12 11 10 10 10 12 13 13 13 12 11 10 10 12 13 13 11 10 11 11 12 11 11 11 13 15 16 18 19 19 18 17 16 17 17 17 17 15 14 13 12 11 11 10 10 9 8 9 9 8 9 10 11 12
16 13 11 10 10 10 11 11 11 11 10 9 9 8 8 7 7 7 8 9 12 14 14 14 14 15 15 14 15 15 14 13 13 12 11 10 11 14 14 13 12 11 10 11 13 14 14 13 13 12 12 12 12 12 11 12 13 14 15 15 16 15 13 14 14 15 15 15 14 13 13 13 13 12 13 12 11 11 10 10 9 10 11 12 12
16 14 11 10 9 9 10 10 9 10 11 10 9 8 8 8 9 9 9 9 10 12 13 14 14 14 15 15 15 16 16 15 14 13 12 10 10 12 13 13 12 11 12 13 14 15 15 15 14 13 13 13 13 13 12 12 13 14 14 13 14 13 12 12 12 12 13 13 13 13 14 14 14 14 14 13 13 12 12 12 11 11 11 12 12
15 12 10 9 8 7 8 8 7 9 11 10 9 8 8 9 10 10 10 11 10 10 10 11 12 13 15 15 16 17 17 17 15 14 14 12 11 11 12 12 11 11 12 13 14 16 17 17 16 15 14 14 14 14 14 14 15 15 15 13 13 12 12 12 12 11 11 12 12 14 15 15 15 15 15 14 14 14 14 14 13 12 12 12 12
15 11 9 9 7 6 6 7 7 8 10 11 9 9 8 8 8 9 10 11 11 10 9 9 9 10 12 13 15 17 17 17 16 14 13 13 12 12 12 12 12 12 12 13 14 16 18 17 16 14 15 16 17 18 17 17 17 17 16 15 14 13 13 13 12 12 12 12 12 13 13 15 16 16 16 15 15 14 14 14 13 12 12 12 11
14 10 9 8 7 6 6 6 7 7 9 10 10 9 8 8 7 7 8 10 10 10 9 8 7 7 8 8 11 12 14 16 16 14 13 13 13 12 12 12 13 13 12 13 14 16 17 17 14 12 14 17 18 19 19 19 19 17 16 15 14 14 14 14 14 14 14 14 14 14 14 14 15 17 18 16 15 14 14 13 12 11 11 11 10
15 12 9 7 6 6 6 7 7 8 9 10 10 9 8 8 7 6 6 6 7 7 7 7 7 6 6 6 7 7 8 12 14 13 12 12 12 12 12 12 12 13 13 13 15 15 15 15 15 13 13 14 15 17 18 18 18 18 17 15 14 14 14 14 15 16 16 15 15 15 15 15 15 16 18 17 15 14 13 13 12 12 11 11 10
16 14 11 9 8 8 8 8 9 10 11 12 11 10 9 8 7 6 4 3 4 5 6 5 6 6 7 7 6 6 6 7 11 13 13 12 12 12 12 12 12 13 14 14 15 16 15 15 16 14 11 11 13 17 19 17 17 18 18 17 15 14 13 12 13 15 15 14 13 13 14 15 16 16 17 18 17 16 15 14 14 13 12 11 11
18 16 14 12 10 10 10 10 11 12 13 13 12 11 10 9 7 6 4 4 4 3 3 2 3 5 7 7 8 9 8 7 9 12 14 13 13 13 12 13 14 14 14 14 14 15 16 17 17 15 12 10 13 18 20 18 18 19 19 19 18 16 14 13 14 14 14 14 13 14 14 14 15 16 17 17 18 17 16 16 16 15 13 12 12
20 18 16 14 12 11 11 11 12 14 14 12 11 11 10 9 9 7 6 6 6 4 3 1 0 3 6 8 10 11 11 10 10 11 13 13 13 13 13 14 15 15 15 15 14 14 16 18 19 17 13 13 15 18 19 18 18 20 21 21 21 20 18 17 17 17 15 15 15 16 16 15 15 16 16 17 18 18 18 17 16 16 15 14 14
23 21 19 15 14 13 12 12 13 14 13 12 12 11 9 8 8 7 7 7 7 5 4 4 3 1 2 5 8 10 11 12 12 12 12 12 11 12 13 13 14 15 15 15 15 14 16 19 20 19 17 17 17 17 18 19 19 21 20 20 22 21 22 22 20 19 18 17 17 18 18 18 18 16 16 17 18 18 19 18 17 17 16 17 17
24 22 20 17 16 15 14 14 13 13 14 13 13 11 9 9 8 7 6 6 6 5 5 5 6 5 4 1 1 5 8 10 12 13 12 10 10 11 12 13 14 14 15 15 14 14 16 18 20 20 19 19 18 16 17 19 21 21 19 18 20 20 21 24 24 21 19 19 19 19 19 19 19 17 17 19 19 19 19 19 19 18 18 18 18
27 25 23 21 19 17 16 16 14 13 14 15 14 12 10 11 9 7 6 4 4 4 5 6 7 7 7 6 4 2 2 5 8 10 10 9 9 9 10 11 11 12 13 14 13 13 13 14 16 17 17 18 18 18 18 19 21 20 19 17 17 17 18 21 22 22 20 20 20 20 19 19 18 18 18 19 20 20 20 20 20 19 19 20 20
30 28 26 25 22 18 18 17 16 15 15 15 15 14 13 12 10 9 8 5 5 4 3 6 8 8 8 8 7 7 5 2 2 4 6 6 6 8 9 10 10 9 10 10 11 11 9 8 11 13 14 15 16 17 17 19 20 20 20 18 14 14 15 17 18 19 19 20 20 19 19 19 18 18 19 19 19 20 21 21 20 20 20 21 22
33 31 29 27 22 19 19 19 18 16 16 16 16 15 14 12 10 9 8 5 5 6 3 5 6 7 8 8 8 9 9 7 5 3 2 2 4 5 6 8 8 8 8 8 8 8 8 7 8 9 10 11 11 12 12 14 17 18 20 20 18 16 13 12 14 15 17 19 19 19 20 20 20 20 20 20 21 21 21 21 21 21 21 21 22
36 33 31 27 23 21 22 21 20 18 17 17 18 17 15 13 8 6 5 4 4 5 3 4 5 6 7 7 8 8 9 9 9 8 7 7 6 5 5 5 5 6 6 6 6 6 6 6 7 8 9 9 10 10 9 9 12 14 15 15 18 22 18 13 13 14 15 17 18 18 19 20 21 22 22 22 22 23 23 22 21 21 21 22 22
37 35 33 29 25 24 23 23 22 19 18 18 19 18 16 14 10 7 7 5 5 5 3 2 3 4 5 6 6 7 8 9 10 10 10 9 9 8 6 5 4 4 4 5 5 5 5 6 6 7 8 9 10 11 10 9 9 10 11 10 12 19 22 20 18 17 15 16 17 16 16 17 19 20 21 22 23 24 25 24 23 23 23 23 23
38 36 34 31 26 25 25 24 24 22 20 19 20 20 18 14 12 10 9 8 7 7 6 3 2 2 3 4 4 5 6 7 8 9 9 9 9 9 8 7 6 4 2 1 2 3 4 5 6 7 7 8 10 11 11 11 11 10 10 10 10 13 17 18 19 18 16 17 21 21 21 21 21 22 21 21 23 24 25 26 26 25 25 24 24
40 38 35 32 28 27 27 26 25 24 22 20 20 21 20 17 15 13 11 10 10 9 7 5 4 3 3 2 3 3 4 6 6 7 7 8 7 7 7 6 6 5 4 2 0 1 2 4 5 6 8 9 10 11 12 12 14 13 12 12 11 11 13 13 15 16 16 17 21 24 25 25 26 26 25 23 23 25 25 26 26 26 25 24 24
41 40 36 33 30 29 29 28 26 25 23 23 22 22 22 20 18 15 13 11 11 10 8 6 6 5 4 4 3 3 3 4 5 5 5 5 5 5 4 4 4 3 2 1 0 2 3 4 6 7 8 10 11 12 13 14 14 15 15 15 14 12 11 11 12 13 14 16 19 22 24 24 25 27 27 26 26 26 25 24 25 26 25 24 24
Wind_Direction
163 150 145 138 143 151 164 170 170 168 164 162 157 154 149 146 145 141 133 127 127 127 129 128 124 120 115 111 106 110 120 127 132 134 135 136 136 133 128 124 123 124 126 129 137 142 143 142 139 134 129 124 120 127 132 125 112 109 116 110 102 103 109 116 122 132 134 126 123 122 120 118 119 120 117 115 111 109 106 102 99 97 92 87 84
157 152 148 139 142 146 160 170 171 171 167 164 160 156 150 147 146 142 134 129 128 126 129 129 125 120 117 113 109 113 124 131 132 134 134 134 134 131 125 120 116 114 116 123 135 142 144 142 140 141 139 139 137 141 147 141 131 125 127 122 112 109 113 118 127 138 142 133 129 126 124 122 121 122 120 116 113 111 107 103 100 97 93 88 86
157 153 149 141 143 144 155 167 172 171 169 167 164 159 152 149 149 146 136 132 130 124 125 127 125 120 117 115 113 115 126 135 135 135 133 131 129 126 121 115 109 103 99 101 116 129 132 129 133 141 144 145 143 146 150 144 139 131 131 130 119 114 114 119 131 143 153 142 134 131 128 126 124 123 121 118 116 113 108 105 102 98 92 88 86
160 155 152 146 143 144 150 163 171 170 170 170 168 164 157 153 152 151 140 136 133 124 123 124 124 120 118 118 118 118 124 135 137 136 133 129 125 122 119 115 109 101 92 85 94 112 116 113 122 138 145 145 144 146 147 143 139 133 133 134 121 116 118 124 135 144 160 148 136 134 130 128 126 122 120 119 118 113 110 107 104 99 92 88 85
162 158 156 149 145 145 149 157 167 168 169 172 172 169 164 160 156 156 147 141 136 127 123 122 123 122 120 120 122 123 124 129 134 135 132 129 127 124 121 118 112 103 94 86 91 107 109 102 113 136 145 142 142 142 142 140 137 134 132 130 119 115 119 125 134 142 154 148 139 136 132 130 127 123 121 120 119 116 113 109 105 100 94 88 83
164 162 158 151 147 146 149 152 160 165 168 172 174 174 171 167 161 161 157 148 142 134 127 124 123 122 120 119 121 125 127 127 131 134 134 134 132 130 127 122 115 108 98 92 100 112 110 100 108 137 145 139 138 137 138 139 135 134 130 124 117 115 118 123 133 141 145 145 144 140 134 132 130 127 124 122 121 120 117 112 106 100 96 90 84
167 164 159 154 150 148 148 149 156 162 167 171 175 177 175 172 167 166 166 158 151 144 134 128 124 121 118 116 117 120 127 129 134 137 140 142 138 137 136 130 120 113 105 99 107 117 112 103 108 137 145 135 133 135 137 139 136 135 132 128 123 119 121 126 133 138 139 142 146 141 137 134 130 128 126 127 123 121 120 114 108 103 97 92 85
168 165 161 158 155 152 149 150 155 162 168 172 175 177 178 176 173 172 172 169 161 153 144 136 129 123 119 119 117 117 123 129 138 144 148 143 139 145 145 141 130 119 111 105 111 120 115 107 111 138 144 132 130 134 138 141 138 137 138 136 129 123 124 129 133 136 137 138 142 140 138 134 131 130 130 131 126 124 122 118 112 106 100 91 84
167 166 163 162 160 156 151 153 155 161 169 174 177 177 179 178 177 177 178 178 172 162 154 147 139 131 125 123 121 119 123 131 140 150 158 152 145 152 153 150 139 126 114 108 113 122 119 112 117 139 142 134 133 135 137 141 140 140 142 140 132 127 126 128 131 136 139 138 139 139 140 138 134 131 129 131 128 126 122 119 114 107 100 89 82
168 167 164 166 165 158 153 155 154 157 165 172 176 174 178 178 178 179 181 183 181 174 164 156 149 141 132 125 125 125 129 133 140 148 154 161 158 157 158 155 143 130 118 112 116 123 122 117 122 138 143 138 136 136 136 139 140 141 144 143 136 128 126 126 127 132 138 137 137 138 139 138 135 132 132 133 129 126 122 120 115 105 97 90 85
167 167 166 170 168 159 154 155 155 154 160 167 173 172 176 178 181 180 179 185 185 182 174 164 157 151 143 133 131 132 139 140 145 148 148 160 161 161 164 155 141 131 123 119 119 124 123 120 126 137 144 140 135 134 134 137 139 139 142 146 138 125 121 123 124 127 132 134 135 137 135 136 139 140 139 139 134 127 124 120 112 103 97 95 91
163 165 168 171 167 159 155 155 155 155 157 161 167 171 174 176 184 183 179 184 186 185 181 172 164 159 153 147 146 145 152 156 157 157 156 163 157 159 163 153 140 129 128 127 124 127 126 122 129 139 145 143 138 135 134 135 137 137 140 142 136 126 121 120 121 125 128 131 137 140 137 140 146 146 144 143 139 132 127 121 113 106 104 101 96
162 166 168 169 164 159 158 157 158 158 154 155 163 170 174 174 183 186 181 186 188 187 182 176 172 166 164 160 159 156 162 166 168 168 166 167 158 154 155 155 149 142 141 135 132 133 132 129 134 144 149 149 145 141 139 139 141 144 143 138 137 134 126 122 121 124 127 131 138 144 143 143 148 149 146 144 142 136 131 125 120 118 116 110 100
164 165 166 166 162 159 160 160 162 160 156 156 162 168 174 177 184 188 183 187 193 191 184 179 178 174 174 173 171 167 171 174 175 174 169 170 170 166 159 162 161 157 156 145 142 142 140 136 140 151 157 158 153 149 146 146 149 153 151 140 139 143 136 129 126 125 127 130 136 145 150 146 150 153 149 146 146 141 135 131 132 135 132 123 110
165 164 165 165 161 159 160 161 164 163 161 161 164 166 171 178 184 185 183 190 195 194 189 183 183 182 184 188 189 184 181 180 178 174 170 170 172 178 176 174 173 167 160 151 150 151 149 142 144 155 164 170 165 158 152 151 156 160 161 149 143 147 146 136 130 126 124 128 133 143 155 155 155 159 155 150 150 146 141 141 143 149 147 137 123
166 167 166 164 162 162 163 163 164 165 166 165 167 166 168 175 180 181 181 189 190 193 192 187 187 187 193 199 200 197 188 184 183 178 173 172 171 177 180 179 179 177 167 160 161 163 164 151 148 156 164 176 177 168 158 157 163 167 169 161 151 148 147 141 132 126 120 124 131 141 158 162 162 164 162 157 155 154 151 150 153 159 158 150 132
170 171 168 166 166 165 166 166 166 167 168 167 168 168 170 175 180 181 177 181 184 190 192 189 189 191 198 206 207 205 192 187 186 182 178 176 177 175 174 178 180 184 183 178 176 178 183 166 152 157 163 174 183 176 164 162 167 171 176 175 163 146 141 144 137 128 120 121 130 140 161 171 171 171 168 164 162 162 160 158 160 166 164 154 134
171 173 170 168 168 170 171 172 172 171 175 173 170 172 174 177 182 182 176 181 183 184 188 189 191 196 204 209 210 207 194 189 186 182 180 180 187 179 170 176 183 187 195 197 192 188 192 182 161 159 162 170 183 180 169 168 172 177 182 187 179 151 140 145 145 139 125 120 127 133 157 178 182 181 177 170 168 169 166 162 165 169 164 153 136
168 172 172 173 174 176 177 175 174 175 182 183 180 180 178 178 182 181 176 182 186 183 185 189 193 200 209 210 208 201 193 191 185 179 179 186 187 181 176 178 184 187 196 201 200 192 191 191 174 163 163 168 182 184 174 172 177 182 188 195 192 163 147 149 148 150 137 127 130 129 141 171 189 193 188 178 175 172 168 165 168 170 162 153 144
165 171 173 177 178 180 180 177 175 178 184 186 188 190 187 182 181 181 178 182 188 186 186 192 196 205 209 204 199 192 190 190 185 181 182 188 180 177 183 180 179 185 191 194 198 192 190 193 187 172 167 168 179 187 180 176 181 187 194 200 201 181 160 154 147 150 149 140 140 141 142 154 190 203 201 190 183 178 171 169 170 168 162 157 152
155 160 164 171 174 178 180 180 182 182 185 189 194 197 198 190 185 184 182 185 187 187 192 197 200 205 205 199 193 182 185 190 184 186 191 186 175 175 186 184 182 188 191 188 191 191 189 189 192 183 174 172 178 186 184 180 184 189 196 201 205 194 174 164 151 149 156 159 156 151 150 153 173 207 212 202 192 185 180 174 174 171 165 166 163
151 152 155 160 165 172 174 177 180 181 184 186 195 200 203 199 195 191 187 189 189 189 197 201 202 203 199 196 194 182 181 187 185 192 201 189 175 176 187 188 190 198 200 195 197 198 195 189 191 189 182 178 179 185 186 184 186 189 196 200 204 198 182 175 160 150 159 171 170 158 156 159 163 168 212 208 197 191 192 188 183 181 176 178 177
155 154 154 155 158 166 167 169 171 177 180 177 188 197 203 203 202 197 191 192 193 193 199 202 202 201 196 191 190 183 177 184 193 196 199 194 183 180 183 185 192 199 198 192 224 210 206 199 192 191 186 182 182 185 187 187 187 189 194 197 201 198 189 186 178 164 161 173 180 171 169 167 167 150 167 210 207 201 201 201 198 197 194 197 200
160 159 161 162 163 168 167 170 171 175 175 169 177 188 199 204 204 198 194 195 196 198 203 204 200 200 198 192 187 183 178 186 203 202 194 196 194 191 183 183 189 189 173 84 352 233 210 203 195 191 186 181 182 184 188 190 188 189 194 196 200 202 198 196 195 188 174 181 194 188 185 178 174 166 154 201 213 211 209 208 211 216 216 219 223
160 162 167 169 168 171 176 179 179 177 174 170 168 179 193 201 202 196 195 195 196 201 206 204 201 202 201 196 190 185 190 203 217 212 199 197 199 199 190 187 191 182 164 135 4 291 222 202 195 189 182 178 181 183 187 191 190 191 194 196 201 206 205 203 203 202 196 202 218 217 210 193 182 182 179 184 202 212 216 215 218 229 233 234 238
165 167 171 173 172 173 179 183 184 182 178 178 176 179 189 198 201 198 197 196 197 204 206 203 203 205 205 202 197 192 198 217 222 212 204 201 203 205 199 194 195 184 166 150 291 287 235 201 193 185 178 176 179 182 184 190 192 193 195 196 202 207 207 207 207 210 211 216 232 245 247 229 214 210 205 199 200 211 220 220 223 235 242 243 246
167 170 173 179 182 184 188 190 190 191 191 193 197 199 195 196 200 202 202 201 203 207 205 204 206 208 208 202 201 200 202 214 215 211 210 206 206 208 207 201 195 188 168 134 321 261 192 184 179 172 170 172 175 179 182 187 192 194 196 197 202 207 207 208 213 220 225 232 244 260 269 263 252 248 240 224 218 224 229 228 230 237 245 250 251
166 169 175 182 188 194 201 209 209 209 212 211 212 213 208 199 200 208 208 206 209 209 206 208 210 212 212 204 205 207 207 216 214 210 212 209 207 204 208 207 196 191 171 135 129 138 135 153 164 164 164 166 167 172 178 183 190 195 198 201 203 208 210 211 219 228 236 245 256 270 277 274 270 270 272 266 246 243 247 242 241 241 247 253 255
173 175 180 186 191 198 203 217 221 222 226 221 223 219 216 208 203 210 214 214 214 212 212 213 215 215 217 217 217 217 216 222 217 209 208 209 209 204 207 212 205 197 178 153 147 144 129 131 149 160 162 161 160 163 169 176 187 194 200 204 206 212 216 219 226 235 241 248 256 266 276 279 279 279 281 284 280 267 263 259 256 252 249 252 254
185 187 190 194 199 205 207 216 220 228 233 228 229 222 220 220 214 214 219 223 221 223 223 219 218 216 218 222 223 224 226 228 222 215 210 204 205 204 208 214 211 207 189 168 160 161 153 139 143 156 160 159 158 158 161 167 178 189 199 207 211 217 223 230 237 241 245 249 252 257 266 276 278 281 284 285 289 286 277 274 275 269 259 255 255
192 197 200 208 215 217 222 228 231 237 237 232 224 218 221 227 230 227 227 231 230 232 232 228 226 222 221 224 227 229 231 237 234 227 218 208 206 206 208 212 211 209 202 180 169 172 177 174 162 162 167 167 164 162 162 165 172 180 192 203 211 219 226 235 242 246 249 250 251 252 256 266 271 275 281 282 285 289 286 285 290 288 278 270 265
196 203 207 217 222 226 233 238 247 247 239 231 217 212 218 224 234 237 236 236 235 236 235 234 233 232 233 233 236 236 236 242 241 235 228 216 210 211 210 212 210 205 204 189 178 180 183 186 182 177 179 182 182 178 173 173 175 179 187 196 205 213 220 229 240 246 251 253 253 255 255 260 265 269 273 276 280 283 285 286 293 294 289 286 279
196 203 210 216 224 234 237 239 250 246 235 225 215 215 219 224 232 236 239 237 235 235 234 235 236 238 241 241 243 244 244 245 243 240 235 221 210 211 212 214 214 210 207 196 188 189 191 191 186 184 188 194 199 197 192 186 181 183 190 195 202 212 218 226 238 243 247 251 255 258 258 259 263 267 270 273 277 280 283 285 290 295 293 293 289
197 201 210 221 234 242 240 240 242 239 231 221 217 221 229 239 241 240 239 236 236 234 230 230 232 236 239 241 244 245 247 247 243 241 238 226 213 212 212 215 218 218 218 210 198 196 199 200 196 195 200 206 212 214 214 206 192 188 192 197 206 215 224 230 238 240 242 248 254 256 257 260 262 265 268 271 275 278 283 285 292 299 299 299 298
204 206 216 231 245 249 248 243 230 230 230 224 225 231 241 247 244 240 234 229 229 230 228 224 222 228 233 236 239 239 243 246 244 243 240 233 222 217 214 213 213 216 224 221 211 206 204 205 207 211 215 216 221 228 232 225 210 201 199 203 210 217 228 236 239 242 242 241 246 250 253 258 261 261 263 266 272 277 280 284 293 303 305 304 303
207 214 227 235 241 244 251 247 229 223 223 225 233 241 247 242 234 229 223 220 218 218 220 217 211 216 226 232 235 235 238 242 243 241 239 236 231 224 217 212 214 218 221 223 221 215 212 212 215 223 226 224 230 238 239 235 224 212 208 211 215 223 235 245 248 253 254 247 243 244 247 254 257 258 259 261 266 271 276 281 289 299 302 305 309
210 221 232 233 235 233 234 235 225 214 212 221 231 236 235 231 228 214 208 210 212 215 218 220 219 216 220 225 229 233 234 237 241 240 235 236 235 229 224 219 223 226 221 224 230 224 220 219 219 229 237 229 230 240 238 234 229 218 216 219 220 229 241 251 257 263 264 259 252 249 251 254 254 253 253 256 261 265 271 277 285 292 296 303 313
212 219 222 222 225 223 216 212 204 195 197 207 213 211 210 217 214 191 188 197 203 217 223 227 234 234 231 224 222 226 230 230 233 237 234 232 235 231 228 223 225 230 226 227 232 232 227 224 221 227 242 234 227 237 239 235 230 221 220 224 229 237 245 253 261 266 267 267 264 260 260 259 254 251 250 253 257 261 266 272 277 283 290 299 310
212 211 208 210 216 213 205 195 187 183 186 192 192 188 193 198 193 179 169 172 188 209 220 231 240 248 252 247 243 237 234 226 222 229 232 230 230 227 225 223 222 223 225 227 229 231 227 224 225 225 232 234 231 236 238 239 233 224 224 227 233 243 247 252 259 262 265 268 270 269 267 263 256 251 251 252 255 258 261 266 271 277 285 294 303
211 208 204 206 214 211 200 188 181 180 183 185 182 180 179 169 159 151 135 128 137 154 182 226 248 257 261 263 266 259 253 243 229 228 229 229 229 227 223 221 222 219 220 226 227 225 222 220 224 228 230 233 234 235 238 242 232 224 229 230 233 242 246 250 254 256 260 264 267 269 271 270 264 254 250 252 256 258 258 261 266 272 279 287 296
208 208 207 207 212 211 202 188 180 182 186 184 180 178 170 151 140 135 119 106 107 105 100 104 259 263 262 264 266 266 263 255 248 241 233 230 230 231 225 216 216 220 221 226 227 222 219 220 225 233 241 240 239 240 247 255 241 228 231 233 234 238 242 249 253 252 255 263 268 270 270 272 272 266 257 253 253 256 256 257 261 267 274 282 289
210 210 210 207 210 210 202 193 187 184 184 181 178 175 159 135 127 128 122 112 107 95 86 83 67 58 263 260 255 257 257 252 253 252 245 235 227 230 231 220 216 220 223 227 231 226 220 223 229 236 243 245 245 243 249 258 252 243 240 236 236 238 240 244 251 252 251 256 264 269 271 271 274 275 271 261 254 253 253 254 258 264 270 277 283
214 213 210 208 211 208 198 196 194 186 179 177 178 173 151 131 125 130 140 134 114 95 86 81 73 72 69 62 242 249 247 242 241 245 247 238 225 224 228 227 225 226 228 231 237 236 228 228 232 234 237 242 245 242 245 249 249 252 249 239 237 240 241 241 245 250 249 251 256 262 269 271 273 275 275 271 263 256 254 255 257 263 269 273 279
215 214 211 211 211 206 201 199 194 186 180 178 179 173 154 143 142 154 165 163 150 121 90 82 80 75 72 70 64 45 273 246 234 232 235 230 222 220 220 225 227 227 231 235 240 243 237 236 239 241 242 245 247 246 247 248 247 250 249 239 236 240 243 242 246 252 252 251 253 257 263 267 271 272 272 273 271 265 259 258 260 264 269 274 278
215 218 218 215 210 206 204 199 194 189 185 183 182 177 167 160 160 175 191 195 183 167 106 86 81 77 77 72 67 67 62 61 216 221 224 216 204 208 215 222 225 225 226 229 234 239 240 238 241 246 249 251 252 251 252 251 249 250 246 238 231 236 246 249 253 257 254 252 255 258 259 262 266 269 272 274 273 271 267 264 265 268 272 276 279
218 220 221 216 208 208 205 197 194 192 189 189 188 184 179 174 170 180 198 205 182 177 146 101 88 80 82 75 72 73 74 80 87 98 116 133 150 174 198 211 221 225 227 230 234 241 246 244 239 241 245 245 245 251 255 252 249 250 251 247 240 240 250 257 259 261 259 255 255 259 261 262 263 265 268 271 272 272 270 270 271 273 276 280 282
219 219 219 214 208 209 206 198 196 196 195 194 193 190 187 183 178 182 206 219 186 186 173 117 104 90 88 84 80 77 77 83 86 88 91 94 104 121 148 173 196 210 220 230 237 243 250 251 249 247 248 246 241 245 254 254 248 249 254 258 253 244 244 254 260 262 266 263 256 254 259 265 265 264 265 267 270 270 270 271 273 275 278 281 284
218 218 218 214 209 208 206 201 198 199 199 199 197 195 192 190 185 193 215 223 208 209 215 156 124 104 98 95 91 88 85 86 88 91 92 92 94 98 108 126 148 179 206 225 235 244 248 252 255 254 255 254 249 249 253 255 257 258 257 265 264 249 245 252 259 258 258 264 262 252 253 264 268 270 270 270 270 269 268 269 270 273 277 279 281
217 219 219 215 210 208 206 203 200 201 202 203 202 198 197 196 194 199 212 215 212 219 226 215 170 134 120 110 107 103 97 95 95 95 95 95 94 93 93 98 105 117 139 199 246 259 259 260 259 258 259 260 257 257 258 255 257 267 270 270 271 260 254 256 262 264 262 267 271 265 262 267 269 269 272 275 276 272 267 266 267 269 273 276 277
217 218 217 213 212 209 206 205 204 204 205 207 205 200 199 201 202 205 209 211 214 220 225 223 217 206 191 163 144 128 116 114 111 106 103 100 97 94 91 93 97 100 108 117 114 284 281 278 268 264 263 264 264 264 265 263 259 262 267 268 270 270 270 267 267 271 271 272 274 272 270 271 271 269 266 270 276 277 271 264 264 266 267 271 275
215 215 215 214 213 211 209 208 208 207 208 210 208 204 203 204 206 208 211 214 216 223 225 220 221 221 218 215 197 173 155 139 132 128 120 111 103 96 90 91 92 85 84 85 354 290 287 282 274 271 266 263 263 262 264 265 264 264 263 262 263 266 273 274 273 275 276 276 279 280 279 276 277 274 267 265 267 271 270 263 261 265 268 272 277